Powrót do katalogu

STARLINK-2446

AktywnyŁącznośćVLEO
NORAD 47844·PAYLOAD·🇺🇸 United States

Wystrzelony Mar 11, 2021 z Cape Canaveral Space Force Station

Loading…

Następne Przeloty (najbliższe 24 godziny)

TLE

ŚwieżeSource: CelesTrak SupGP

Epoka: Sep 15, 2026, 01:38 UTC

1 47844C 21018BK  26258.06854167  .00035137  00000+0  89674-3 0  2582
2 47844  53.1553  82.1202 0004285 130.3063 203.6657 15.38902493    15

Śledź STARLINK-2446 w czasie rzeczywistym z AllMySat

Download on the App Store